Tulsa Jones, OK

8:34 PM CDT on July 24, 2017 (GMT -0500)
Jones Jr.

Weather History for KRVS - December, 2011

Change the Weather History Date:

Friday, December 23, 2011

  Actual Average (KTUL) Record (KTUL)
Temperature  
Mean Temperature 33 °F -  
Max Temperature 42 °F 47 °F 73 °F (1982)
Min Temperature 23 °F 27 °F -8 °F (1989)
Degree Days  
Heating Degree Days 32    
Moisture  
Dew Point 20 °F    
Average Humidity 63    
Maximum Humidity 85    
Minimum Humidity 35    
Precipitation  
Precipitation 0.00 in - - ()
Sea Level Pressure  
Sea Level Pressure 30.48 in    
Wind  
Wind Speed 6 mph (North)    
Max Wind Speed 9 mph    
Max Gust Speed 20 mph    
Visibility 10 miles    
Events      
Averages and records for this station are not official NWS values.
T = Trace of Precipitation, MM = Missing Value Source: NWS Daily Summary

Daily Weather History Graph

Daily Weather History Graph

Search for Another Location

Airport or City:

Trip Planner

Search our weather history database for the weather conditions in past years. The results will help you decide how hot, cold, wet, or windy it might be!

Date:

Astronomy

Dec. 23, 2011 Rise Set
Actual Time 7:31 AM CST 5:14 PM CST
Civil Twilight 7:03 AM CST 5:42 PM CST
Nautical Twilight 6:30 AM CST 6:15 PM CST
Astronomical Twilight 5:59 AM CST 6:46 PM CST
Moon 6:21 AM CST (12/23) 4:24 PM CST (12/23)
Length of Visible Light 10h 39m
Length of Day
9h 42m
Waning Crescent, 1% of the Moon is Illuminated
Dec 23
Waning Crescent
Dec 24
New
Jan 1
First Quarter
Jan 9
Full
Jan 16
Last Quarter

Hourly Weather History & Observations

Time (CST) Temp. Windchill Dew Point Humidity Pressure Visibility Wind Dir Wind Speed Gust Speed Precip Events Conditions
12:53 AM 33.1 °F 25.5 °F 25.0 °F 72% 30.42 in 10.0 mi North 9.2 mph 19.6 mph N/A   Overcast
1:53 AM 33.1 °F 26.1 °F 23.0 °F 66% 30.43 in 10.0 mi North 8.1 mph 17.3 mph N/A   Overcast
3:53 AM 33.1 °F 25.5 °F 21.9 °F 64% 30.46 in 10.0 mi North 9.2 mph - N/A   Overcast
4:53 AM 33.1 °F 26.9 °F 21.9 °F 64% 30.46 in 10.0 mi North 6.9 mph - N/A   Overcast
6:53 AM 30.0 °F 23.2 °F 21.0 °F 69% 30.49 in 10.0 mi North 6.9 mph - N/A   Overcast
7:53 AM 30.0 °F 26.5 °F 19.9 °F 66% 30.51 in 10.0 mi North 3.5 mph - N/A   Overcast
8:53 AM 30.0 °F 23.2 °F 19.9 °F 66% 30.53 in 10.0 mi North 6.9 mph - N/A   Overcast
9:53 AM 30.9 °F 22.8 °F 21.0 °F 67% 30.55 in 10.0 mi North 9.2 mph - N/A   Mostly Cloudy
10:06 AM 33.8 °F 27.0 °F 21.2 °F 60% 30.52 in 10.0 mi North 8.1 mph - N/A   Scattered Clouds
10:53 AM 35.1 °F 27.9 °F 23.0 °F 61% 30.54 in 10.0 mi NNE 9.2 mph - N/A   Clear
12:53 PM 39.0 °F 33.4 °F 19.9 °F 46% 30.47 in 10.0 mi NNE 8.1 mph - N/A   Clear
1:53 PM 41.0 °F 37.1 °F 19.9 °F 43% 30.45 in 10.0 mi NNE 5.8 mph - N/A   Clear
2:53 PM 42.1 °F - 18.0 °F 38% 30.44 in 10.0 mi Calm Calm - N/A   Clear
4:53 PM 42.1 °F 39.2 °F 16.0 °F 35% 30.44 in 10.0 mi Variable 4.6 mph - N/A   Clear
5:53 PM 36.0 °F - 19.0 °F 50% 30.45 in 10.0 mi Calm Calm - N/A   Clear
6:53 PM 30.9 °F - 19.9 °F 64% 30.47 in 10.0 mi Calm Calm - N/A   Clear
7:53 PM 28.9 °F - 21.0 °F 72% 30.47 in 10.0 mi Calm Calm - N/A   Clear
8:53 PM 28.0 °F - 19.9 °F 72% 30.48 in 10.0 mi Calm Calm - N/A   Clear
9:53 PM 26.1 °F - 19.9 °F 78% 30.48 in 10.0 mi Calm Calm - N/A   Clear
10:53 PM 24.1 °F - 19.0 °F 81% 30.48 in 10.0 mi Calm Calm - N/A   Clear
11:53 PM 23.0 °F - 19.0 °F 85% 30.48 in 10.0 mi Calm Calm - N/A   Clear